Waukesha, WI

11:28 AM CDT on August 31, 2016 (GMT -0500)
Waukesha County

Weather History for KUES - March, 2013

Change the Weather History Date:

Friday, March 1, 2013

  Actual Average Record
Temperature  
Mean Temperature 22 °F -  
Max Temperature 23 °F 37 °F 57 °F (2004)
Min Temperature 21 °F 21 °F -14 °F (1962)
Degree Days  
Heating Degree Days 43    
Moisture  
Dew Point 18 °F    
Average Humidity 82    
Maximum Humidity 86    
Minimum Humidity 74    
Precipitation  
Precipitation 0.00 in - - ()
Sea Level Pressure  
Sea Level Pressure 30.15 in    
Wind  
Wind Speed 11 mph (NNW)    
Max Wind Speed 15 mph    
Max Gust Speed 23 mph    
Visibility 9 miles    
Events Snow    
Averages and records for this station are not official NWS values.
T = Trace of Precipitation, MM = Missing Value Source: NWS Daily Summary

Daily Weather History Graph

Daily Weather History Graph

Search for Another Location

Airport or City:

Trip Planner

Search our weather history database for the weather conditions in past years. The results will help you decide how hot, cold, wet, or windy it might be!

Date:

Astronomy

Mar. 01, 2013 Rise Set
Actual Time 6:28 AM CST 5:42 PM CST
Civil Twilight 6:00 AM CST 6:11 PM CST
Nautical Twilight 5:27 AM CST 6:43 PM CST
Astronomical Twilight 4:54 AM CST 7:16 PM CST
Moon 10:24 PM CST (3/1) 8:07 AM CST (3/1)
Length of Visible Light 12h 11m
Length of Day
11h 14m
Waning Gibbous, 83% of the Moon is Illuminated
Mar 1
Waning Gibbous
Mar 4
Last Quarter
Mar 11
New
Mar 19
First Quarter
Mar 27
Full

Hourly Weather History & Observations

Time (CST) Temp. Windchill Dew Point Humidity Pressure Visibility Wind Dir Wind Speed Gust Speed Precip Events Conditions
12:15 AM 23.0 °F 13.9 °F 19.4 °F 86% 30.08 in 10.0 mi North 8.1 mph - N/A   Overcast
12:35 AM 23.0 °F 11.7 °F 19.4 °F 86% 30.08 in 10.0 mi NNW 11.5 mph - N/A   Overcast
12:55 AM 23.0 °F 11.7 °F 19.4 °F 86% 30.08 in 10.0 mi NNW 11.5 mph 17.3 mph N/A   Overcast
1:15 AM 23.0 °F 11.7 °F 19.4 °F 86% 30.09 in 10.0 mi NNW 11.5 mph - N/A   Overcast
1:35 AM 23.0 °F 13.9 °F 19.4 °F 86% 30.09 in 10.0 mi NNW 8.1 mph - N/A   Overcast
2:15 AM 23.0 °F 11.7 °F 19.4 °F 86% 30.08 in 10.0 mi NNW 11.5 mph - N/A   Overcast
2:35 AM 23.0 °F 12.4 °F 19.4 °F 86% 30.08 in 10.0 mi NNW 10.4 mph - N/A   Overcast
3:15 AM 23.0 °F 11.1 °F 19.4 °F 86% 30.08 in 10.0 mi NNW 12.7 mph - N/A   Overcast
3:35 AM 23.0 °F 11.7 °F 19.4 °F 86% 30.08 in 10.0 mi NNW 11.5 mph - N/A   Overcast
3:55 AM 23.0 °F 13.1 °F 19.4 °F 86% 30.09 in 7.0 mi NNW 9.2 mph 17.3 mph N/A Snow Light Snow
4:15 AM 23.0 °F 12.4 °F 19.4 °F 86% 30.09 in 7.0 mi NNW 10.4 mph - N/A Snow Light Snow
4:35 AM 23.0 °F 12.4 °F 19.4 °F 86% 30.09 in 5.0 mi North 10.4 mph 17.3 mph N/A Snow Light Snow
6:45 AM 21.2 °F 8.3 °F 17.6 °F 86% 30.13 in 10.0 mi North 13.8 mph - N/A   Overcast
7:45 AM 21.2 °F 7.8 °F 17.6 °F 86% 30.14 in 7.0 mi NNW 15.0 mph - N/A   Overcast
8:55 AM 21.2 °F 8.3 °F 17.6 °F 86% 30.15 in 7.0 mi North 13.8 mph - N/A   Overcast
9:45 AM 21.2 °F 10.1 °F 17.6 °F 86% 30.16 in 7.0 mi NNW 10.4 mph - N/A   Overcast
12:45 PM 21.2 °F 8.9 °F 17.6 °F 86% 30.17 in 10.0 mi North 12.7 mph - N/A   Overcast
1:45 PM 21.2 °F 7.8 °F 17.6 °F 86% 30.17 in 10.0 mi North 15.0 mph - N/A   Overcast
2:45 PM 21.2 °F 8.3 °F 17.6 °F 86% 30.17 in 10.0 mi North 13.8 mph - N/A   Overcast
4:45 PM 23.0 °F 10.1 °F 17.6 °F 80% 30.17 in 10.0 mi North 15.0 mph 23.0 mph N/A   Overcast
5:45 PM 23.0 °F 11.1 °F 15.8 °F 74% 30.20 in 10.0 mi North 12.7 mph - N/A   Overcast
6:45 PM 21.2 °F 12.6 °F 17.6 °F 86% 30.21 in 10.0 mi North 6.9 mph - N/A   Overcast
7:45 PM 21.2 °F 11.7 °F 15.8 °F 80% 30.21 in 10.0 mi NNW 8.1 mph - N/A   Overcast
8:15 PM 23.0 °F 12.4 °F 17.6 °F 80% 30.21 in 10.0 mi NNW 10.4 mph - N/A   Overcast
8:35 PM 23.0 °F 11.7 °F 17.6 °F 80% 30.21 in 10.0 mi NW 11.5 mph - N/A   Overcast
8:45 PM 21.2 °F 10.1 °F 15.8 °F 80% 30.21 in 10.0 mi NNW 10.4 mph - N/A   Overcast
8:55 PM 23.0 °F 12.4 °F 17.6 °F 80% 30.21 in 10.0 mi NNW 10.4 mph - N/A   Overcast
9:15 PM 23.0 °F 12.4 °F 17.6 °F 80% 30.21 in 10.0 mi NNW 10.4 mph 16.1 mph N/A   Overcast
9:35 PM 23.0 °F 11.7 °F 15.8 °F 74% 30.21 in 10.0 mi NNW 11.5 mph 17.3 mph N/A   Overcast
9:55 PM 23.0 °F 10.6 °F 15.8 °F 74% 30.20 in 10.0 mi NNW 13.8 mph - N/A   Overcast
10:15 PM 23.0 °F 12.4 °F 15.8 °F 74% 30.20 in 10.0 mi NNW 10.4 mph - N/A   Overcast
10:35 PM 21.2 °F 9.5 °F 15.8 °F 80% 30.20 in 10.0 mi NNW 11.5 mph - N/A   Overcast
10:55 PM 21.2 °F 10.9 °F 15.8 °F 80% 30.20 in 10.0 mi NNW 9.2 mph - N/A   Overcast
11:15 PM 21.2 °F 9.5 °F 14.0 °F 74% 30.20 in 10.0 mi NNW 11.5 mph - N/A   Overcast
11:35 PM 21.2 °F 9.5 °F 14.0 °F 74% 30.19 in 10.0 mi NNW 11.5 mph - N/A   Overcast
11:55 PM 21.2 °F 10.1 °F 14.0 °F 74% 30.19 in 10.0 mi NNW 10.4 mph - N/A   Overcast